owner,sensor,date,latitude,longitude,vertical_datum,mass_concentration_of_oxygen_in_sea_water,qcFlag 
SCCF RECON,ioos:station:SCCF:11:1,2017-02-01T00:00:00Z,26.4679,-82.0631,1.66,7.36,1111122 
SCCF RECON,ioos:station:SCCF:11:1,2017-02-01T01:00:00Z,26.4679,-82.0631,1.61,7.25,1111122 
SCCF RECON,ioos:station:SCCF:11:1,2017-02-01T02:00:00Z,26.4679,-82.0631,1.55,7.17,1111122 
SCCF RECON,ioos:station:SCCF:11:1,2017-02-01T03:00:00Z,26.4679,-82.0631,1.54,7.24,1111122 
SCCF RECON,ioos:station:SCCF:11:1,2017-02-01T04:00:00Z,26.4679,-82.0631,1.61,6.87,1111122 
SCCF RECON,ioos:station:SCCF:11:1,2017-02-01T05:00:00Z,26.4679,-82.0631,1.741,6.89,1111122 
SCCF RECON,ioos:station:SCCF:11:1,2017-02-01T06:00:00Z,26.4679,-82.0631,1.87,6.9,1111122 
SCCF RECON,ioos:station:SCCF:11:1,2017-02-01T07:00:00Z,26.4679,-82.0631,1.95,6.97,1111122 
SCCF RECON,ioos:station:SCCF:11:1,2017-02-01T08:00:00Z,26.4679,-82.0631,2.01,6.85,1111122 
SCCF RECON,ioos:station:SCCF:11:1,2017-02-01T09:00:00Z,26.4679,-82.0631,2.02,6.78,1111122 
SCCF RECON,ioos:station:SCCF:11:1,2017-02-01T10:00:00Z,26.4679,-82.0631,1.95,6.76,1111122 
SCCF RECON,ioos:station:SCCF:11:1,2017-02-01T11:00:00Z,26.4679,-82.0631,1.833,6.76,1111122 
SCCF RECON,ioos:station:SCCF:11:1,2017-02-01T12:00:00Z,26.4679,-82.0631,1.71,6.59,1111122 
SCCF RECON,ioos:station:SCCF:11:1,2017-02-01T13:00:00Z,26.4679,-82.0631,1.619,6.47,1111122 
SCCF RECON,ioos:station:SCCF:11:1,2017-02-01T14:00:00Z,26.4679,-82.0631,1.53,6.44,1111122 
SCCF RECON,ioos:station:SCCF:11:1,2017-02-01T15:00:00Z,26.4679,-82.0631,1.47,6.41,1111122 
SCCF RECON,ioos:station:SCCF:11:1,2017-02-01T16:00:00Z,26.4679,-82.0631,1.509,6.69,1111122 
SCCF RECON,ioos:station:SCCF:11:1,2017-02-01T17:00:00Z,26.4679,-82.0631,1.63,6.73,1111122 
SCCF RECON,ioos:station:SCCF:11:1,2017-02-01T18:00:00Z,26.4679,-82.0631,1.77,7.14,1111122 
SCCF RECON,ioos:station:SCCF:11:1,2017-02-01T19:00:00Z,26.4679,-82.0631,1.87,7.22,1111122 
SCCF RECON,ioos:station:SCCF:11:1,2017-02-01T20:00:00Z,26.4679,-82.0631,1.952,7.2,1111122 
SCCF RECON,ioos:station:SCCF:11:1,2017-02-01T21:00:00Z,26.4679,-82.0631,2.027,7.11,1111122 
SCCF RECON,ioos:station:SCCF:11:1,2017-02-01T22:00:00Z,26.4679,-82.0631,2.05,7.26,1111122 
SCCF RECON,ioos:station:SCCF:11:1,2017-02-01T23:00:00Z,26.4679,-82.0631,1.93,7.22,1111122 
SCCF RECON,ioos:station:SCCF:11:1,2017-02-02T00:00:00Z,26.4679,-82.0631,1.79,7.27,1111122 
SCCF RECON,ioos:station:SCCF:11:1,2017-02-02T01:00:00Z,26.4679,-82.0631,1.692,7.21,1111122 
SCCF RECON,ioos:station:SCCF:11:1,2017-02-02T02:00:00Z,26.4679,-82.0631,1.62,7.13,1111122 
SCCF RECON,ioos:station:SCCF:11:1,2017-02-02T03:00:00Z,26.4679,-82.0631,1.56,7.09,1111122 
SCCF RECON,ioos:station:SCCF:11:1,2017-02-02T04:00:00Z,26.4679,-82.0631,1.55,6.98,1111122 
SCCF RECON,ioos:station:SCCF:11:1,2017-02-02T05:00:00Z,26.4679,-82.0631,1.61,6.79,1111122 
SCCF RECON,ioos:station:SCCF:11:1,2017-02-02T06:00:00Z,26.4679,-82.0631,1.73,6.84,1111122 
SCCF RECON,ioos:station:SCCF:11:1,2017-02-02T07:00:00Z,26.4679,-82.0631,1.83,6.76,1111122 
SCCF RECON,ioos:station:SCCF:11:1,2017-02-02T08:00:00Z,26.4679,-82.0631,1.886,6.89,1111122 
SCCF RECON,ioos:station:SCCF:11:1,2017-02-02T09:00:00Z,26.4679,-82.0631,1.93,6.79,1111122 
SCCF RECON,ioos:station:SCCF:11:1,2017-02-02T10:00:00Z,26.4679,-82.0631,1.95,6.69,1111122 
SCCF RECON,ioos:station:SCCF:11:1,2017-02-02T11:00:00Z,26.4679,-82.0631,1.91,6.67,1111122 
SCCF RECON,ioos:station:SCCF:11:1,2017-02-02T12:00:00Z,26.4679,-82.0631,1.81,6.68,1111122 
SCCF RECON,ioos:station:SCCF:11:1,2017-02-02T13:00:00Z,26.4679,-82.0631,1.7,6.47,1111122 
SCCF RECON,ioos:station:SCCF:11:1,2017-02-02T14:00:00Z,26.4679,-82.0631,1.61,6.36,1111122 
SCCF RECON,ioos:station:SCCF:11:1,2017-02-02T15:00:00Z,26.4679,-82.0631,1.54,6.35,1111122 
SCCF RECON,ioos:station:SCCF:11:1,2017-02-02T16:00:00Z,26.4679,-82.0631,1.52,6.37,1111122 
SCCF RECON,ioos:station:SCCF:11:1,2017-02-02T17:00:00Z,26.4679,-82.0631,1.58,6.58,1111122 
SCCF RECON,ioos:station:SCCF:11:1,2017-02-02T18:00:00Z,26.4679,-82.0631,1.69,6.71,1111122 
SCCF RECON,ioos:station:SCCF:11:1,2017-02-02T19:00:00Z,26.4679,-82.0631,1.81,7.04,1111122 
SCCF RECON,ioos:station:SCCF:11:1,2017-02-02T20:00:00Z,26.4679,-82.0631,1.9,7.11,1111122 
SCCF RECON,ioos:station:SCCF:11:1,2017-02-02T21:00:00Z,26.4679,-82.0631,1.98,7.09,1111122 
SCCF RECON,ioos:station:SCCF:11:1,2017-02-02T22:00:00Z,26.4679,-82.0631,2.02,6.97,1111122 
SCCF RECON,ioos:station:SCCF:11:1,2017-02-02T23:00:00Z,26.4679,-82.0631,2.017,7.34,1111122 
SCCF RECON,ioos:station:SCCF:11:1,2017-02-03T00:00:00Z,26.4679,-82.0631,1.901,7.12,1111122 
SCCF RECON,ioos:station:SCCF:11:1,2017-02-03T01:00:00Z,26.4679,-82.0631,1.78,7.07,1111122 
SCCF RECON,ioos:station:SCCF:11:1,2017-02-03T02:00:00Z,26.4679,-82.0631,1.67,6.97,1111122 
SCCF RECON,ioos:station:SCCF:11:1,2017-02-03T03:00:00Z,26.4679,-82.0631,1.58,6.9,1111122 
SCCF RECON,ioos:station:SCCF:11:1,2017-02-03T04:00:00Z,26.4679,-82.0631,1.506,6.79,1111122 
SCCF RECON,ioos:station:SCCF:11:1,2017-02-03T05:00:00Z,26.4679,-82.0631,1.48,6.7,1111122 
SCCF RECON,ioos:station:SCCF:11:1,2017-02-03T06:00:00Z,26.4679,-82.0631,1.53,6.53,1111122 
SCCF RECON,ioos:station:SCCF:11:1,2017-02-03T07:00:00Z,26.4679,-82.0631,1.62,6.52,1111122 
SCCF RECON,ioos:station:SCCF:11:1,2017-02-03T08:00:00Z,26.4679,-82.0631,1.71,6.52,1111122 
SCCF RECON,ioos:station:SCCF:11:1,2017-02-03T09:00:00Z,26.4679,-82.0631,1.78,6.43,1111122 
SCCF RECON,ioos:station:SCCF:11:1,2017-02-03T10:00:00Z,26.4679,-82.0631,1.85,6.56,1111122 
SCCF RECON,ioos:station:SCCF:11:1,2017-02-03T11:00:00Z,26.4679,-82.0631,1.882,6.48,1111122 
SCCF RECON,ioos:station:SCCF:11:1,2017-02-03T12:00:00Z,26.4679,-82.0631,1.869,6.39,1111122 
SCCF RECON,ioos:station:SCCF:11:1,2017-02-03T13:00:00Z,26.4679,-82.0631,1.79,6.47,1111122 
SCCF RECON,ioos:station:SCCF:11:1,2017-02-03T14:00:00Z,26.4679,-82.0631,1.7,6.39,1111122 
SCCF RECON,ioos:station:SCCF:11:1,2017-02-03T15:00:00Z,26.4679,-82.0631,1.64,6.27,1111122 
SCCF RECON,ioos:station:SCCF:11:1,2017-02-03T16:00:00Z,26.4679,-82.0631,1.601,6.37,1111122 
SCCF RECON,ioos:station:SCCF:11:1,2017-02-03T17:00:00Z,26.4679,-82.0631,1.617,6.34,1111122 
SCCF RECON,ioos:station:SCCF:11:1,2017-02-03T18:00:00Z,26.4679,-82.0631,1.68,6.39,1111122 
SCCF RECON,ioos:station:SCCF:11:1,2017-02-03T19:00:00Z,26.4679,-82.0631,1.79,6.65,1111122 
SCCF RECON,ioos:station:SCCF:11:1,2017-02-03T20:00:00Z,26.4679,-82.0631,1.893,7.01,1111122 
SCCF RECON,ioos:station:SCCF:11:1,2017-02-03T21:00:00Z,26.4679,-82.0631,1.97,7.18,1111122 
SCCF RECON,ioos:station:SCCF:11:1,2017-02-03T22:00:00Z,26.4679,-82.0631,2.03,7.12,1111122 
SCCF RECON,ioos:station:SCCF:11:1,2017-02-03T23:00:00Z,26.4679,-82.0631,2.05,6.97,1111122 
SCCF RECON,ioos:station:SCCF:11:1,2017-02-04T00:00:00Z,26.4679,-82.0631,2.0,7.16,1111122 
SCCF RECON,ioos:station:SCCF:11:1,2017-02-04T01:00:00Z,26.4679,-82.0631,1.89,6.97,1111122 
SCCF RECON,ioos:station:SCCF:11:1,2017-02-04T02:00:00Z,26.4679,-82.0631,1.77,6.81,1111122 
SCCF RECON,ioos:station:SCCF:11:1,2017-02-04T03:00:00Z,26.4679,-82.0631,1.66,6.7,1111122 
SCCF RECON,ioos:station:SCCF:11:1,2017-02-04T04:00:00Z,26.4679,-82.0631,1.56,6.6,1111122 
SCCF RECON,ioos:station:SCCF:11:1,2017-02-04T05:00:00Z,26.4679,-82.0631,1.47,6.49,1111122 
SCCF RECON,ioos:station:SCCF:11:1,2017-02-04T06:00:00Z,26.4679,-82.0631,1.42,6.37,1111122 
SCCF RECON,ioos:station:SCCF:11:1,2017-02-04T07:00:00Z,26.4679,-82.0631,1.41,6.2,1111122 
SCCF RECON,ioos:station:SCCF:11:1,2017-02-04T08:00:00Z,26.4679,-82.0631,1.49,6.21,1111122 
SCCF RECON,ioos:station:SCCF:11:1,2017-02-04T09:00:00Z,26.4679,-82.0631,1.583,6.19,1111122 
SCCF RECON,ioos:station:SCCF:11:1,2017-02-04T10:00:00Z,26.4679,-82.0631,1.67,6.19,1111122 
SCCF RECON,ioos:station:SCCF:11:1,2017-02-04T11:00:00Z,26.4679,-82.0631,1.74,6.22,1111122 
SCCF RECON,ioos:station:SCCF:11:1,2017-02-04T12:00:00Z,26.4679,-82.0631,1.78,6.12,1111122 
SCCF RECON,ioos:station:SCCF:11:1,2017-02-04T13:00:00Z,26.4679,-82.0631,1.756,6.19,1111122 
SCCF RECON,ioos:station:SCCF:11:1,2017-02-04T14:00:00Z,26.4679,-82.0631,1.7,6.37,1111122 
SCCF RECON,ioos:station:SCCF:11:1,2017-02-04T15:00:00Z,26.4679,-82.0631,1.622,6.21,1111122 
SCCF RECON,ioos:station:SCCF:11:1,2017-02-04T16:00:00Z,26.4679,-82.0631,1.6,6.17,1111122 
SCCF RECON,ioos:station:SCCF:11:1,2017-02-04T17:00:00Z,26.4679,-82.0631,1.59,6.38,1111122 
SCCF RECON,ioos:station:SCCF:11:1,2017-02-04T18:00:00Z,26.4679,-82.0631,1.6,6.34,1111122 
SCCF RECON,ioos:station:SCCF:11:1,2017-02-04T19:00:00Z,26.4679,-82.0631,1.66,6.54,1111122 
SCCF RECON,ioos:station:SCCF:11:1,2017-02-04T20:00:00Z,26.4679,-82.0631,1.74,7.0,1111122 
SCCF RECON,ioos:station:SCCF:11:1,2017-02-04T21:00:00Z,26.4679,-82.0631,1.85,7.01,1111122 
SCCF RECON,ioos:station:SCCF:11:1,2017-02-04T22:00:00Z,26.4679,-82.0631,1.94,7.15,1111122 
SCCF RECON,ioos:station:SCCF:11:1,2017-02-04T23:00:00Z,26.4679,-82.0631,2.009,7.01,1111122 
SCCF RECON,ioos:station:SCCF:11:1,2017-02-05T00:00:00Z,26.4679,-82.0631,2.03,7.06,1111122 
SCCF RECON,ioos:station:SCCF:11:1,2017-02-05T01:00:00Z,26.4679,-82.0631,2.0,7.24,1111122 
SCCF RECON,ioos:station:SCCF:11:1,2017-02-05T02:00:00Z,26.4679,-82.0631,1.91,6.91,1111122 
SCCF RECON,ioos:station:SCCF:11:1,2017-02-05T03:00:00Z,26.4679,-82.0631,1.81,6.87,1111122 
SCCF RECON,ioos:station:SCCF:11:1,2017-02-05T04:00:00Z,26.4679,-82.0631,1.7,6.8,1111122 
SCCF RECON,ioos:station:SCCF:11:1,2017-02-05T05:00:00Z,26.4679,-82.0631,1.58,6.54,1111122 
SCCF RECON,ioos:station:SCCF:11:1,2017-02-05T06:00:00Z,26.4679,-82.0631,1.48,6.47,1111122 
SCCF RECON,ioos:station:SCCF:11:1,2017-02-05T07:00:00Z,26.4679,-82.0631,1.4,6.33,1111122 
SCCF RECON,ioos:station:SCCF:11:1,2017-02-05T08:00:00Z,26.4679,-82.0631,1.36,6.23,1111122 
SCCF RECON,ioos:station:SCCF:11:1,2017-02-05T09:00:00Z,26.4679,-82.0631,1.425,6.13,1111122 
SCCF RECON,ioos:station:SCCF:11:1,2017-02-05T10:00:00Z,26.4679,-82.0631,1.56,6.17,1111122 
SCCF RECON,ioos:station:SCCF:11:1,2017-02-05T11:00:00Z,26.4679,-82.0631,1.69,6.36,1111122 
SCCF RECON,ioos:station:SCCF:11:1,2017-02-05T12:00:00Z,26.4679,-82.0631,1.77,6.16,1111122 
SCCF RECON,ioos:station:SCCF:11:1,2017-02-05T13:00:00Z,26.4679,-82.0631,1.84,6.01,1111122 
SCCF RECON,ioos:station:SCCF:11:1,2017-02-05T14:00:00Z,26.4679,-82.0631,1.87,6.17,1111122 
SCCF RECON,ioos:station:SCCF:11:1,2017-02-05T15:00:00Z,26.4679,-82.0631,1.86,6.29,1111122 
SCCF RECON,ioos:station:SCCF:11:1,2017-02-05T16:00:00Z,26.4679,-82.0631,1.839,6.33,1111122 
SCCF RECON,ioos:station:SCCF:11:1,2017-02-05T17:00:00Z,26.4679,-82.0631,1.79,6.4,1111122 
SCCF RECON,ioos:station:SCCF:11:1,2017-02-05T18:00:00Z,26.4679,-82.0631,1.76,6.4,1111122 
SCCF RECON,ioos:station:SCCF:11:1,2017-02-05T19:00:00Z,26.4679,-82.0631,1.723,6.86,1111122 
SCCF RECON,ioos:station:SCCF:11:1,2017-02-05T20:00:00Z,26.4679,-82.0631,1.74,6.81,1111122 
SCCF RECON,ioos:station:SCCF:11:1,2017-02-05T21:00:00Z,26.4679,-82.0631,1.8,7.42,1111122 
SCCF RECON,ioos:station:SCCF:11:1,2017-02-05T22:00:00Z,26.4679,-82.0631,1.896,7.06,1111122 
SCCF RECON,ioos:station:SCCF:11:1,2017-02-05T23:00:00Z,26.4679,-82.0631,2.0,6.86,1111122 
SCCF RECON,ioos:station:SCCF:11:1,2017-02-06T00:00:00Z,26.4679,-82.0631,2.03,6.87,1111122 
SCCF RECON,ioos:station:SCCF:11:1,2017-02-06T01:00:00Z,26.4679,-82.0631,2.05,6.76,1111122 
SCCF RECON,ioos:station:SCCF:11:1,2017-02-06T02:00:00Z,26.4679,-82.0631,2.0,6.84,1111122 
SCCF RECON,ioos:station:SCCF:11:1,2017-02-06T03:00:00Z,26.4679,-82.0631,1.892,6.71,1111122 
SCCF RECON,ioos:station:SCCF:11:1,2017-02-06T04:00:00Z,26.4679,-82.0631,1.766,6.55,1111122 
SCCF RECON,ioos:station:SCCF:11:1,2017-02-06T05:00:00Z,26.4679,-82.0631,1.65,6.44,1111122 
SCCF RECON,ioos:station:SCCF:11:1,2017-02-06T06:00:00Z,26.4679,-82.0631,1.53,6.44,1111122 
SCCF RECON,ioos:station:SCCF:11:1,2017-02-06T07:00:00Z,26.4679,-82.0631,1.4,6.26,1111122 
SCCF RECON,ioos:station:SCCF:11:1,2017-02-06T08:00:00Z,26.4679,-82.0631,1.283,6.07,1111122 
SCCF RECON,ioos:station:SCCF:11:1,2017-02-06T09:00:00Z,26.4679,-82.0631,1.25,5.95,1111122 
SCCF RECON,ioos:station:SCCF:11:1,2017-02-06T10:00:00Z,26.4679,-82.0631,1.311,5.89,1111122 
SCCF RECON,ioos:station:SCCF:11:1,2017-02-06T11:00:00Z,26.4679,-82.0631,1.46,6.04,1111122 
SCCF RECON,ioos:station:SCCF:11:1,2017-02-06T12:00:00Z,26.4679,-82.0631,1.59,6.16,1111122 
SCCF RECON,ioos:station:SCCF:11:1,2017-02-06T13:00:00Z,26.4679,-82.0631,1.7,6.11,1111122 
SCCF RECON,ioos:station:SCCF:11:1,2017-02-06T14:00:00Z,26.4679,-82.0631,1.793,6.19,1111122 
SCCF RECON,ioos:station:SCCF:11:1,2017-02-06T15:00:00Z,26.4679,-82.0631,1.856,6.48,1111122 
SCCF RECON,ioos:station:SCCF:11:1,2017-02-06T16:00:00Z,26.4679,-82.0631,1.879,6.43,1111122 
SCCF RECON,ioos:station:SCCF:11:1,2017-02-06T17:00:00Z,26.4679,-82.0631,1.87,6.44,1111122 
SCCF RECON,ioos:station:SCCF:11:1,2017-02-06T18:00:00Z,26.4679,-82.0631,1.85,6.55,1111122 
SCCF RECON,ioos:station:SCCF:11:1,2017-02-06T19:00:00Z,26.4679,-82.0631,1.784,6.72,1111122 
SCCF RECON,ioos:station:SCCF:11:1,2017-02-06T20:00:00Z,26.4679,-82.0631,1.74,6.84,1111122 
SCCF RECON,ioos:station:SCCF:11:1,2017-02-06T21:00:00Z,26.4679,-82.0631,1.79,7.48,1111122 
SCCF RECON,ioos:station:SCCF:11:1,2017-02-06T22:00:00Z,26.4679,-82.0631,1.9,7.21,1111122 
SCCF RECON,ioos:station:SCCF:11:1,2017-02-06T23:00:00Z,26.4679,-82.0631,2.001,7.1,1111122 
SCCF RECON,ioos:station:SCCF:11:1,2017-02-07T00:00:00Z,26.4679,-82.0631,2.07,6.93,1111122 
SCCF RECON,ioos:station:SCCF:11:1,2017-02-07T01:00:00Z,26.4679,-82.0631,2.111,6.72,1111122 
SCCF RECON,ioos:station:SCCF:11:1,2017-02-07T02:00:00Z,26.4679,-82.0631,2.14,6.72,1111122 
SCCF RECON,ioos:station:SCCF:11:1,2017-02-07T03:00:00Z,26.4679,-82.0631,2.111,6.78,1111122 
SCCF RECON,ioos:station:SCCF:11:1,2017-02-07T04:00:00Z,26.4679,-82.0631,2.021,6.73,1111122 
SCCF RECON,ioos:station:SCCF:11:1,2017-02-07T05:00:00Z,26.4679,-82.0631,1.9,6.65,1111122 
SCCF RECON,ioos:station:SCCF:11:1,2017-02-07T06:00:00Z,26.4679,-82.0631,1.75,6.59,1111122 
SCCF RECON,ioos:station:SCCF:11:1,2017-02-07T07:00:00Z,26.4679,-82.0631,1.6,6.47,1111122 
SCCF RECON,ioos:station:SCCF:11:1,2017-02-07T08:00:00Z,26.4679,-82.0631,1.45,6.34,1111122 
SCCF RECON,ioos:station:SCCF:11:1,2017-02-07T09:00:00Z,26.4679,-82.0631,1.33,6.22,1111122 
SCCF RECON,ioos:station:SCCF:11:1,2017-02-07T10:00:00Z,26.4679,-82.0631,1.28,6.06,1111122 
SCCF RECON,ioos:station:SCCF:11:1,2017-02-07T11:00:00Z,26.4679,-82.0631,1.36,5.92,1111122 
SCCF RECON,ioos:station:SCCF:11:1,2017-02-07T12:00:00Z,26.4679,-82.0631,1.51,5.98,1111122 
SCCF RECON,ioos:station:SCCF:11:1,2017-02-07T13:00:00Z,26.4679,-82.0631,1.643,5.96,1111122 
SCCF RECON,ioos:station:SCCF:11:1,2017-02-07T14:00:00Z,26.4679,-82.0631,1.758,5.96,1111122 
SCCF RECON,ioos:station:SCCF:11:1,2017-02-07T15:00:00Z,26.4679,-82.0631,1.84,6.13,1111122 
SCCF RECON,ioos:station:SCCF:11:1,2017-02-07T16:00:00Z,26.4679,-82.0631,1.891,6.29,1111122 
SCCF RECON,ioos:station:SCCF:11:1,2017-02-07T17:00:00Z,26.4679,-82.0631,1.888,6.38,1111122 
SCCF RECON,ioos:station:SCCF:11:1,2017-02-07T18:00:00Z,26.4679,-82.0631,1.84,6.42,1111122 
SCCF RECON,ioos:station:SCCF:11:1,2017-02-07T19:00:00Z,26.4679,-82.0631,1.769,6.59,1111122 
SCCF RECON,ioos:station:SCCF:11:1,2017-02-07T20:00:00Z,26.4679,-82.0631,1.702,6.73,1111122 
SCCF RECON,ioos:station:SCCF:11:1,2017-02-07T21:00:00Z,26.4679,-82.0631,1.66,6.83,1111122 
SCCF RECON,ioos:station:SCCF:11:1,2017-02-07T22:00:00Z,26.4679,-82.0631,1.685,6.93,1111122 
SCCF RECON,ioos:station:SCCF:11:1,2017-02-07T23:00:00Z,26.4679,-82.0631,1.794,6.99,1111122 
SCCF RECON,ioos:station:SCCF:11:1,2017-02-08T00:00:00Z,26.4679,-82.0631,1.909,6.99,1111122 
SCCF RECON,ioos:station:SCCF:11:1,2017-02-08T01:00:00Z,26.4679,-82.0631,1.981,6.83,1111122 
SCCF RECON,ioos:station:SCCF:11:1,2017-02-08T02:00:00Z,26.4679,-82.0631,2.05,6.76,1111122 
SCCF RECON,ioos:station:SCCF:11:1,2017-02-08T03:00:00Z,26.4679,-82.0631,2.14,6.69,1111122 
SCCF RECON,ioos:station:SCCF:11:1,2017-02-08T04:00:00Z,26.4679,-82.0631,2.16,6.55,1111122 
SCCF RECON,ioos:station:SCCF:11:1,2017-02-08T05:00:00Z,26.4679,-82.0631,2.08,6.65,1111122 
SCCF RECON,ioos:station:SCCF:11:1,2017-02-08T06:00:00Z,26.4679,-82.0631,1.9,6.53,1111122 
SCCF RECON,ioos:station:SCCF:11:1,2017-02-08T07:00:00Z,26.4679,-82.0631,1.759,6.31,1111122 
SCCF RECON,ioos:station:SCCF:11:1,2017-02-08T08:00:00Z,26.4679,-82.0631,1.64,6.21,1111122 
SCCF RECON,ioos:station:SCCF:11:1,2017-02-08T09:00:00Z,26.4679,-82.0631,1.52,5.94,1111122 
SCCF RECON,ioos:station:SCCF:11:1,2017-02-08T10:00:00Z,26.4679,-82.0631,1.38,5.81,1111122 
SCCF RECON,ioos:station:SCCF:11:1,2017-02-08T11:00:00Z,26.4679,-82.0631,1.32,5.63,1111122 
SCCF RECON,ioos:station:SCCF:11:1,2017-02-08T12:00:00Z,26.4679,-82.0631,1.35,5.55,1111122 
SCCF RECON,ioos:station:SCCF:11:1,2017-02-08T13:00:00Z,26.4679,-82.0631,1.55,5.76,1111122 
SCCF RECON,ioos:station:SCCF:11:1,2017-02-08T14:00:00Z,26.4679,-82.0631,1.78,6.05,1111122 
SCCF RECON,ioos:station:SCCF:11:1,2017-02-08T15:00:00Z,26.4679,-82.0631,1.919,6.13,1111122 
SCCF RECON,ioos:station:SCCF:11:1,2017-02-08T16:00:00Z,26.4679,-82.0631,2.0,6.1,1111122 
SCCF RECON,ioos:station:SCCF:11:1,2017-02-08T17:00:00Z,26.4679,-82.0631,1.992,6.13,1111122 
SCCF RECON,ioos:station:SCCF:11:1,2017-02-08T18:00:00Z,26.4679,-82.0631,1.96,6.18,1111122 
SCCF RECON,ioos:station:SCCF:11:1,2017-02-08T19:00:00Z,26.4679,-82.0631,1.897,6.53,1111122 
SCCF RECON,ioos:station:SCCF:11:1,2017-02-08T20:00:00Z,26.4679,-82.0631,1.834,6.8,1111122 
SCCF RECON,ioos:station:SCCF:11:1,2017-02-08T21:00:00Z,26.4679,-82.0631,1.768,6.88,1111122 
SCCF RECON,ioos:station:SCCF:11:1,2017-02-08T22:00:00Z,26.4679,-82.0631,1.7,7.13,1111122 
SCCF RECON,ioos:station:SCCF:11:1,2017-02-08T23:00:00Z,26.4679,-82.0631,1.7,7.12,1111122 
SCCF RECON,ioos:station:SCCF:11:1,2017-02-09T00:00:00Z,26.4679,-82.0631,1.79,6.8,1111122 
SCCF RECON,ioos:station:SCCF:11:1,2017-02-09T01:00:00Z,26.4679,-82.0631,1.944,6.68,1111122 
SCCF RECON,ioos:station:SCCF:11:1,2017-02-09T02:00:00Z,26.4679,-82.0631,2.05,6.66,1111122 
SCCF RECON,ioos:station:SCCF:11:1,2017-02-09T03:00:00Z,26.4679,-82.0631,2.13,6.5,1111122 
SCCF RECON,ioos:station:SCCF:11:1,2017-02-09T04:00:00Z,26.4679,-82.0631,2.18,6.42,1111122 
SCCF RECON,ioos:station:SCCF:11:1,2017-02-09T05:00:00Z,26.4679,-82.0631,2.15,6.56,1111122 
SCCF RECON,ioos:station:SCCF:11:1,2017-02-09T06:00:00Z,26.4679,-82.0631,2.04,6.64,1111122 
SCCF RECON,ioos:station:SCCF:11:1,2017-02-09T07:00:00Z,26.4679,-82.0631,1.861,6.29,1111122 
SCCF RECON,ioos:station:SCCF:11:1,2017-02-09T08:00:00Z,26.4679,-82.0631,1.697,6.0,1111122 
SCCF RECON,ioos:station:SCCF:11:1,2017-02-09T09:00:00Z,26.4679,-82.0631,1.55,5.86,1111122 
SCCF RECON,ioos:station:SCCF:11:1,2017-02-09T10:00:00Z,26.4679,-82.0631,1.395,5.54,1111122 
SCCF RECON,ioos:station:SCCF:11:1,2017-02-09T11:00:00Z,26.4679,-82.0631,1.28,5.46,1111122 
SCCF RECON,ioos:station:SCCF:11:1,2017-02-09T12:00:00Z,26.4679,-82.0631,1.27,5.38,1111122 
SCCF RECON,ioos:station:SCCF:11:1,2017-02-09T13:00:00Z,26.4679,-82.0631,1.4,5.53,1111122 
SCCF RECON,ioos:station:SCCF:11:1,2017-02-09T14:00:00Z,26.4679,-82.0631,1.57,5.74,1111122 
SCCF RECON,ioos:station:SCCF:11:1,2017-02-09T15:00:00Z,26.4679,-82.0631,1.715,5.79,1111122 
SCCF RECON,ioos:station:SCCF:11:1,2017-02-09T16:00:00Z,26.4679,-82.0631,1.831,5.91,1111122 
SCCF RECON,ioos:station:SCCF:11:1,2017-02-09T17:00:00Z,26.4679,-82.0631,1.938,6.08,1111122 
SCCF RECON,ioos:station:SCCF:11:1,2017-02-09T18:00:00Z,26.4679,-82.0631,1.985,6.01,1111122 
SCCF RECON,ioos:station:SCCF:11:1,2017-02-09T19:00:00Z,26.4679,-82.0631,1.915,6.61,1111122 
SCCF RECON,ioos:station:SCCF:11:1,2017-02-09T20:00:00Z,26.4679,-82.0631,1.799,6.71,1111122 
SCCF RECON,ioos:station:SCCF:11:1,2017-02-09T21:00:00Z,26.4679,-82.0631,1.735,6.88,1111122 
SCCF RECON,ioos:station:SCCF:11:1,2017-02-09T22:00:00Z,26.4679,-82.0631,1.675,6.99,1111122 
SCCF RECON,ioos:station:SCCF:11:1,2017-02-09T23:00:00Z,26.4679,-82.0631,1.622,6.97,1111122 
SCCF RECON,ioos:station:SCCF:11:1,2017-02-10T00:00:00Z,26.4679,-82.0631,1.62,6.9,1111122 
SCCF RECON,ioos:station:SCCF:11:1,2017-02-10T01:00:00Z,26.4679,-82.0631,1.71,6.71,1111122 
SCCF RECON,ioos:station:SCCF:11:1,2017-02-10T02:00:00Z,26.4679,-82.0631,1.872,6.55,1111122 
SCCF RECON,ioos:station:SCCF:11:1,2017-02-10T03:00:00Z,26.4679,-82.0631,2.019,6.55,1111122 
SCCF RECON,ioos:station:SCCF:11:1,2017-02-10T04:00:00Z,26.4679,-82.0631,2.137,6.45,1111122 
SCCF RECON,ioos:station:SCCF:11:1,2017-02-10T05:00:00Z,26.4679,-82.0631,2.13,6.29,1111122 
SCCF RECON,ioos:station:SCCF:11:1,2017-02-10T06:00:00Z,26.4679,-82.0631,2.067,6.39,1111122 
SCCF RECON,ioos:station:SCCF:11:1,2017-02-10T07:00:00Z,26.4679,-82.0631,1.886,6.29,1111122 
SCCF RECON,ioos:station:SCCF:11:1,2017-02-10T08:00:00Z,26.4679,-82.0631,1.715,6.02,1111122 
SCCF RECON,ioos:station:SCCF:11:1,2017-02-10T09:00:00Z,26.4679,-82.0631,1.576,5.94,1111122 
SCCF RECON,ioos:station:SCCF:11:1,2017-02-10T10:00:00Z,26.4679,-82.0631,1.415,5.86,1111122 
SCCF RECON,ioos:station:SCCF:11:1,2017-02-10T11:00:00Z,26.4679,-82.0631,1.268,5.73,1111122 
SCCF RECON,ioos:station:SCCF:11:1,2017-02-10T12:00:00Z,26.4679,-82.0631,1.161,5.8,1111122 
SCCF RECON,ioos:station:SCCF:11:1,2017-02-10T13:00:00Z,26.4679,-82.0631,1.1,5.89,1111122 
SCCF RECON,ioos:station:SCCF:11:1,2017-02-10T14:00:00Z,26.4679,-82.0631,1.21,6.29,1111122 
SCCF RECON,ioos:station:SCCF:11:1,2017-02-10T15:00:00Z,26.4679,-82.0631,1.41,6.41,1111122 
SCCF RECON,ioos:station:SCCF:11:1,2017-02-10T16:00:00Z,26.4679,-82.0631,1.58,6.76,1111122 
SCCF RECON,ioos:station:SCCF:11:1,2017-02-10T17:00:00Z,26.4679,-82.0631,1.69,6.9,1111122 
SCCF RECON,ioos:station:SCCF:11:1,2017-02-10T18:00:00Z,26.4679,-82.0631,1.78,7.15,1111122 
SCCF RECON,ioos:station:SCCF:11:1,2017-02-10T19:00:00Z,26.4679,-82.0631,1.833,6.94,1111122 
SCCF RECON,ioos:station:SCCF:11:1,2017-02-10T20:00:00Z,26.4679,-82.0631,1.8,7.01,1111122 
SCCF RECON,ioos:station:SCCF:11:1,2017-02-10T21:00:00Z,26.4679,-82.0631,1.7,7.25,1111122 
SCCF RECON,ioos:station:SCCF:11:1,2017-02-10T22:00:00Z,26.4679,-82.0631,1.64,7.47,1111122 
SCCF RECON,ioos:station:SCCF:11:1,2017-02-10T23:00:00Z,26.4679,-82.0631,1.636,7.34,1111122 
SCCF RECON,ioos:station:SCCF:11:1,2017-02-11T00:00:00Z,26.4679,-82.0631,1.61,7.49,1111122 
SCCF RECON,ioos:station:SCCF:11:1,2017-02-11T01:00:00Z,26.4679,-82.0631,1.67,7.23,1111122 
SCCF RECON,ioos:station:SCCF:11:1,2017-02-11T02:00:00Z,26.4679,-82.0631,1.81,7.05,1111122 
SCCF RECON,ioos:station:SCCF:11:1,2017-02-11T03:00:00Z,26.4679,-82.0631,1.94,6.96,1111122 
SCCF RECON,ioos:station:SCCF:11:1,2017-02-11T04:00:00Z,26.4679,-82.0631,2.03,6.86,1111122 
SCCF RECON,ioos:station:SCCF:11:1,2017-02-11T05:00:00Z,26.4679,-82.0631,2.1,6.87,1111122 
SCCF RECON,ioos:station:SCCF:11:1,2017-02-11T06:00:00Z,26.4679,-82.0631,2.121,6.76,1111122 
SCCF RECON,ioos:station:SCCF:11:1,2017-02-11T07:00:00Z,26.4679,-82.0631,2.04,6.82,1111122 
SCCF RECON,ioos:station:SCCF:11:1,2017-02-11T08:00:00Z,26.4679,-82.0631,1.875,6.72,1111122 
SCCF RECON,ioos:station:SCCF:11:1,2017-02-11T09:00:00Z,26.4679,-82.0631,1.71,6.63,1111122 
SCCF RECON,ioos:station:SCCF:11:1,2017-02-11T10:00:00Z,26.4679,-82.0631,1.58,6.47,1111122 
SCCF RECON,ioos:station:SCCF:11:1,2017-02-11T11:00:00Z,26.4679,-82.0631,1.461,6.36,1111122 
SCCF RECON,ioos:station:SCCF:11:1,2017-02-11T12:00:00Z,26.4679,-82.0631,1.36,6.2,1111122 
SCCF RECON,ioos:station:SCCF:11:1,2017-02-11T13:00:00Z,26.4679,-82.0631,1.32,6.14,1111122 
SCCF RECON,ioos:station:SCCF:11:1,2017-02-11T14:00:00Z,26.4679,-82.0631,1.41,6.29,1111122 
SCCF RECON,ioos:station:SCCF:11:1,2017-02-11T15:00:00Z,26.4679,-82.0631,1.599,6.87,1111122 
SCCF RECON,ioos:station:SCCF:11:1,2017-02-11T16:00:00Z,26.4679,-82.0631,1.74,7.16,1111122 
SCCF RECON,ioos:station:SCCF:11:1,2017-02-11T17:00:00Z,26.4679,-82.0631,1.85,7.32,1111122 
SCCF RECON,ioos:station:SCCF:11:1,2017-02-11T18:00:00Z,26.4679,-82.0631,1.93,7.33,1111122 
SCCF RECON,ioos:station:SCCF:11:1,2017-02-11T19:00:00Z,26.4679,-82.0631,1.95,7.14,1111122 
SCCF RECON,ioos:station:SCCF:11:1,2017-02-11T20:00:00Z,26.4679,-82.0631,1.906,7.23,1111122 
SCCF RECON,ioos:station:SCCF:11:1,2017-02-11T21:00:00Z,26.4679,-82.0631,1.812,7.94,1111122 